[[{"header":{"parameterUnit":"m.s-1","parameterCategory":1,"la1":30.2991,"la2":30.254,"lo1":-89.0895,"lo2":-89.0444,"dy":0.0017,"dx":0.0017,"nx":28,"ny":28,"refTime":"2025-12-17T03:00:00:Z","depth":0,"parameterNumber":2,"parameterNumberName":"U-component_of_WINDS"},"data":[0,0,0,0,0,0,0,0,0,0,0,0,0,0,0,0,0,0,0,0,0,0,0,0,0,0,0,0,0,0,0,0,0,0,0,0,0,0,0,0,0,0,0,0,0,0,0,0,0,0,0,0,0,0,0,0,0,0,-4.6585,-4.6585,0,-4.6586,-4.6586,-4.6586,-4.6413,-4.6409,-4.6404,-4.64,-4.6405,-4.641,-4.6414,0,0,0,0,0,0,0,0,0,0,0,0,0,-4.6437,-4.6441,-4.6585,-4.6585,-4.6585,-4.6586,-4.6586,-4.6586,-4.6414,-4.6408,-4.6403,-4.6398,-4.6404,-4.6409,-4.6415,0,0,0,0,0,0,0,0,0,0,0,0,0,-4.6476,-4.6442,-4.6585,-4.6499,-4.6491,-4.6586,-4.6586,-4.6586,-4.6415,-4.6408,-4.6401,-4.6395,-4.6402,-4.6409,-4.6415,-4.6594,0,0,-4.6436,-4.6438,0,0,0,0,0,0,0,0,-4.6474,-4.6482,-4.6511,-4.6505,-4.6496,-4.6492,-4.6536,-4.6589,-4.6417,-4.6444,-4.64,-4.6392,-4.644,-4.6443,-4.6459,-4.6594,-4.6594,-4.6436,-4.644,-4.6443,-4.6445,0,0,0,0,0,0,0,-4.6472,-4.6481,-4.6585,-4.6512,-4.6503,-4.6462,-4.646,-4.6545,-4.6481,-4.6441,-4.6429,-4.6431,-4.6435,-4.6453,-4.6458,-4.6594,-4.6436,-4.6442,-4.6446,-4.6448,-4.6879,-4.6886,0,0,0,0,0,0,-4.648,-4.648,-4.6585,-4.6585,-4.6468,-4.647,-4.6468,-4.6501,-4.6479,-4.6469,-4.6437,-4.6423,-4.6445,-4.645,-4.6457,-4.6667,-4.6443,-4.6449,-4.6453,-4.6871,-4.688,-4.6888,0,0,0,0,0,0,-4.6478,-4.6491,-4.6585,-4.6529,-4.6538,-4.648,-4.6518,-4.6504,-4.6522,-4.6476,-4.6464,-4.6467,-4.644,-4.6448,-4.6561,-4.6665,-4.6452,-4.6458,-4.6862,-4.6874,-4.6884,-4.7087,0,0,0,0,0,0,-4.6474,-4.6491,-4.6558,-4.6532,-4.6542,-4.6689,-4.6525,-4.6509,-4.6534,-4.6515,-4.6501,-4.6492,-4.6435,-4.6552,-4.6568,-4.667,-4.6463,-4.6853,-4.6868,-4.6881,-4.7071,-4.7104,-4.7132,0,0,0,0,0,-4.647,-4.6615,-4.6562,-4.6576,-4.6623,-4.6695,-4.6701,-4.6631,-4.6543,-4.661,-4.658,-4.6493,-4.665,-4.6565,-4.6582,-4.6687,-4.6846,-4.6863,-4.688,-4.7057,-4.7097,-4.7131,0,0,0,0,0,0,-4.6655,-4.661,-4.6551,-4.6692,-4.6699,-4.6666,-4.6748,-4.6675,-4.6708,-4.669,-4.6602,-4.6601,-4.6729,-4.6718,-4.6625,-4.686,-4.6733,-4.6754,-4.6862,-4.69,-4.693,-4.6931,-4.6469,0,0,0,0,0,-4.6712,-4.6773,-4.6731,-4.6859,-4.6866,-4.6807,-4.6835,-4.6781,-4.6785,-4.6787,-4.6766,-4.6775,-4.6826,-4.6862,-4.6906,-4.7068,-4.7064,-4.7148,-4.7179,-4.7204,-4.7224,-4.7311,-4.7349,-4.6943,-4.6943,-4.6943,0,0,-4.6832,-4.6814,-4.6858,-4.6896,-4.6895,-4.6962,-4.681,-4.6887,-4.6936,-4.6799,-4.6905,-4.6891,-4.6894,-4.7033,-4.7093,-4.7029,-4.7335,-4.7225,-4.7246,-4.7252,-4.7332,-4.7371,-4.7405,-4.6955,-4.6953,-4.6951,0,0,-4.7083,-4.7075,-4.7183,-4.7185,-4.7184,-4.7144,-4.7171,-4.7149,-4.7134,-4.7238,-4.7138,-4.7196,-4.7285,-4.7293,-4.7309,-4.7565,-4.7487,-4.7582,-4.7742,-4.7828,-4.786,-4.7888,-4.7983,-4.8017,-4.7601,-4.7602,-4.7602,0,-4.7232,-4.7327,-4.7247,-4.7331,-4.7352,-4.723,-4.734,-4.7346,-4.7361,-4.7379,-4.7306,-4.7417,-4.7411,-4.7552,-4.7614,-4.763,-4.7659,-4.7584,-4.7862,-4.7889,-4.7914,-4.8003,-4.8039,-4.7614,-4.7612,-4.7611,-4.761,0,-4.7511,-4.7579,-4.7666,-4.7684,-4.7714,-4.7811,-4.7747,-4.7788,-4.7731,-4.77,-4.781,-4.7797,-4.7839,-4.7867,-4.7813,-4.8001,-4.7961,-4.7877,-4.7748,-4.7966,-4.8048,-4.8081,-4.7631,-4.7626,-4.7623,-4.762,0,0,-4.7881,-4.7853,-4.7887,-4.7894,-4.7886,-4.7938,-4.8029,-4.8069,-4.8107,-4.8121,-4.8198,-4.8277,-4.8199,-4.8217,-4.8162,-4.8238,-4.8445,-4.8143,-4.8142,-4.8202,-4.8655,-4.8722,-4.8762,-4.8392,-4.8398,-4.8403,-4.8656,0,-4.8127,-4.8281,-4.8213,-4.8375,-4.8439,-4.8324,-4.8404,-4.8409,-4.8382,-4.8433,-4.8403,-4.8462,-4.8353,-4.8364,-4.8433,-4.8405,-4.8535,-4.8386,-4.8465,-4.8469,-4.8471,-4.8804,-4.8874,-4.9113,-4.8687,-4.8693,-4.8696,0,-4.8435,-4.8462,-4.8632,-4.8613,-4.8637,-4.8711,-4.8742,-4.8791,-4.8795,-4.8771,-4.8792,-4.872,-4.8811,-4.8681,-4.8807,-4.8707,-4.8735,-4.8727,-4.8734,-4.8741,-4.8598,-4.8823,-4.9187,-4.9225,-4.8746,-4.8742,-4.8738,0,-4.8691,-4.877,-4.8882,-4.8891,-4.8872,-4.8927,-4.8922,-4.8918,-4.8947,-4.8975,-4.8994,-4.9032,-4.9055,-4.9087,-4.9029,-4.8939,-4.9164,-4.9028,-4.9148,-4.915,-4.9203,-4.9201,-4.958,-4.9217,-4.9216,-4.9216,-4.9215,0,-4.8975,-4.9084,-4.8997,-4.9067,-4.9185,-4.9106,-4.9227,-4.9209,-4.9207,-4.9272,-4.9175,-4.9239,-4.9156,-4.9213,-4.9167,-4.928,-4.929,-4.9274,-4.9262,-4.9285,-4.9288,-4.9304,-4.9287,-4.9225,-4.9223,-4.9221,-4.922,0,-4.9282,-4.9228,-4.9343,-4.9316,-4.9311,-4.9401,-4.9378,-4.9442,-4.9408,-4.9492,-4.9507,-4.9455,-4.9517,-4.9461,-4.9519,-4.9489,-4.964,-4.9602,-4.9639,-4.963,-4.9754,-4.9744,-5.0159,-5.0211,-4.9813,-4.9817,-4.982,0,-4.9468,-4.9549,-4.953,-4.9567,-4.9567,-4.9627,-4.9656,-4.9581,-4.9616,-4.9627,-4.9691,-4.9743,-4.9782,-4.9885,-4.9854,-4.9899,-4.9863,-5.0005,-4.9869,-4.9891,-4.9869,-4.9866,-4.9875,-5.0034,-5.0039,-5.0043,-5.0046,0,-4.9805,-4.9774,-4.9819,-4.9856,-4.9893,-4.9918,-4.9936,-4.9972,-4.9895,-4.9939,-5.0,-5.0031,-5.009,-5.0146,-5.0181,-5.0176,-5.0101,-5.0088,-5.0119,-5.0145,-5.0165,-5.0159,-4.9718,-5.008,-5.0076,-5.0074,-5.0072,-5.0071,-5.0058,-5.0126,-5.0124,-5.0178,-5.0183,-5.0203,-5.0262,-5.0236,-5.0285,-5.0328,-5.0281,-5.0357,-5.036,-5.0399,-5.0405,-5.0464,-5.0405,-5.0448,-5.046,-5.0473,-5.0492,-5.0153,-5.047,-5.0469,-5.0468,-5.0467,-5.0466,0,-5.0392,-5.0385,-5.0436,-5.0464,-5.0507,-5.0429,-5.0445,-5.0488,-5.0555,-5.0564,-5.0604,-5.0676,-5.0729,-5.0702,-5.0748,-5.0801,-5.0768,-5.0816,-5.0813,-5.0814,-5.0541,-5.0511,-5.0843,-5.0843,-5.0843,-5.0843,-5.0843,-5.0842,-5.0571,-5.0682,-5.0652,-5.0766,-5.0758,-5.0831,-5.0847,-5.0866,-5.0872,-5.0957,-5.1,-5.0982,-5.0977,-5.1023,-5.1069,-5.1059,-5.1082,-5.1145,-5.1124,-5.087,-5.0833,-5.0798,-5.0769,-5.115,-5.115,-5.1391,-5.1394,-5.1396]},{"header":{"parameterUnit":"m.s-1","parameterCategory":1,"la1":30.2991,"la2":30.254,"lo1":-89.0895,"lo2":-89.0444,"dy":0.0017,"dx":0.0017,"nx":28,"ny":28,"refTime":"2025-12-17T03:00:00:Z","depth":0,"parameterNumber":3,"parameterNumberName":"V-component_of_WINDS"},"data":[0,0,0,0,0,0,0,0,0,0,0,0,0,0,0,0,0,0,0,0,0,0,0,0,0,0,0,0,0,0,0,0,0,0,0,0,0,0,0,0,0,0,0,0,0,0,0,0,0,0,0,0,0,0,0,0,0,0,-1.8146,-1.8147,0,-1.8162,-1.8162,-1.8162,-1.8149,-1.8149,-1.8148,-1.8148,-1.8162,-1.8163,-1.8164,0,0,0,0,0,0,0,0,0,0,0,0,0,-1.8105,-1.8105,-1.8146,-1.8147,-1.8147,-1.8161,-1.8162,-1.8162,-1.815,-1.8149,-1.8148,-1.8148,-1.8162,-1.8163,-1.8164,0,0,0,0,0,0,0,0,0,0,0,0,0,-1.8122,-1.8106,-1.8146,-1.8142,-1.8142,-1.8161,-1.8162,-1.8162,-1.815,-1.8149,-1.8148,-1.8147,-1.8162,-1.8163,-1.8164,-1.8188,0,0,-1.8168,-1.8169,0,0,0,0,0,0,0,0,-1.8121,-1.8123,-1.8143,-1.8143,-1.8143,-1.8153,-1.8152,-1.8171,-1.815,-1.8147,-1.8148,-1.8147,-1.816,-1.8161,-1.8166,-1.8188,-1.8189,-1.8168,-1.8169,-1.817,-1.817,0,0,0,0,0,0,0,-1.8119,-1.8122,-1.8152,-1.8143,-1.8143,-1.8139,-1.8141,-1.8156,-1.8157,-1.8147,-1.8146,-1.8148,-1.8159,-1.8164,-1.8166,-1.8189,-1.8168,-1.8169,-1.817,-1.8171,-1.823,-1.8231,0,0,0,0,0,0,-1.8119,-1.8121,-1.8152,-1.8153,-1.8129,-1.8141,-1.8142,-1.815,-1.8157,-1.8158,-1.8149,-1.8148,-1.8163,-1.8164,-1.8166,-1.8193,-1.817,-1.8171,-1.8172,-1.823,-1.8231,-1.8231,0,0,0,0,0,0,-1.8118,-1.8122,-1.8151,-1.8137,-1.814,-1.8142,-1.8151,-1.8151,-1.8156,-1.8159,-1.8159,-1.8154,-1.8162,-1.8164,-1.8182,-1.8194,-1.8171,-1.8173,-1.8229,-1.823,-1.8231,-1.8248,0,0,0,0,0,0,-1.8117,-1.8122,-1.8131,-1.8137,-1.8141,-1.8168,-1.8152,-1.8152,-1.8158,-1.8157,-1.8163,-1.8163,-1.8162,-1.818,-1.8183,-1.8195,-1.8174,-1.8228,-1.8229,-1.8231,-1.8247,-1.825,-1.8253,0,0,0,0,0,-1.8115,-1.8135,-1.8132,-1.8135,-1.8153,-1.8168,-1.8171,-1.8168,-1.8159,-1.8168,-1.817,-1.8163,-1.8192,-1.8182,-1.8186,-1.8198,-1.8227,-1.8229,-1.8231,-1.8245,-1.8249,-1.8252,0,0,0,0,0,0,-1.8131,-1.8136,-1.8132,-1.8155,-1.8161,-1.8166,-1.8178,-1.8173,-1.8182,-1.818,-1.8176,-1.8178,-1.8196,-1.8199,-1.8188,-1.822,-1.8208,-1.821,-1.8218,-1.8222,-1.8224,-1.8223,-1.8175,0,0,0,0,0,-1.8137,-1.8149,-1.8153,-1.8172,-1.8176,-1.8176,-1.8183,-1.818,-1.8187,-1.8189,-1.8192,-1.8198,-1.8208,-1.8215,-1.8225,-1.8247,-1.8247,-1.8257,-1.826,-1.8262,-1.8264,-1.8275,-1.8279,-1.8237,-1.8237,-1.8237,0,0,-1.8149,-1.8154,-1.8162,-1.8176,-1.818,-1.8192,-1.8179,-1.8192,-1.8201,-1.8191,-1.8208,-1.821,-1.8216,-1.8236,-1.8245,-1.8239,-1.8276,-1.8264,-1.8266,-1.8267,-1.8277,-1.8281,-1.8284,-1.8239,-1.8238,-1.8238,0,0,-1.8178,-1.8183,-1.8199,-1.8204,-1.8211,-1.8211,-1.8215,-1.8221,-1.8222,-1.8238,-1.8231,-1.8241,-1.8259,-1.8263,-1.8268,-1.8297,-1.829,-1.83,-1.8315,-1.8326,-1.8329,-1.8332,-1.8341,-1.8345,-1.8302,-1.8302,-1.8302,0,-1.8193,-1.8211,-1.8208,-1.8222,-1.8228,-1.8219,-1.8235,-1.824,-1.825,-1.8253,-1.8246,-1.8268,-1.8272,-1.8292,-1.8299,-1.8303,-1.8306,-1.8299,-1.8329,-1.8332,-1.8334,-1.8343,-1.8347,-1.8303,-1.8303,-1.8303,-1.8303,0,-1.8228,-1.824,-1.8252,-1.8262,-1.8269,-1.8284,-1.8282,-1.829,-1.8286,-1.8287,-1.8303,-1.8307,-1.8317,-1.8322,-1.8319,-1.8341,-1.8337,-1.8329,-1.8317,-1.8339,-1.8347,-1.8351,-1.8305,-1.8304,-1.8304,-1.8304,0,0,-1.8267,-1.8274,-1.8278,-1.8282,-1.8289,-1.8298,-1.8312,-1.8321,-1.8327,-1.8334,-1.8344,-1.8359,-1.8352,-1.8357,-1.8355,-1.8364,-1.8385,-1.8355,-1.8355,-1.836,-1.8408,-1.8413,-1.8417,-1.8381,-1.8382,-1.8382,-1.8407,0,-1.8295,-1.832,-1.8317,-1.834,-1.835,-1.8342,-1.8354,-1.8359,-1.8359,-1.8368,-1.8368,-1.8378,-1.8369,-1.8371,-1.838,-1.8381,-1.8395,-1.8379,-1.839,-1.8391,-1.8388,-1.8422,-1.8427,-1.8451,-1.8411,-1.8411,-1.8412,0,-1.8332,-1.8339,-1.8363,-1.8367,-1.8371,-1.8382,-1.8389,-1.8398,-1.8403,-1.8403,-1.8408,-1.8403,-1.8416,-1.8403,-1.842,-1.841,-1.8414,-1.8415,-1.8416,-1.8416,-1.8402,-1.8422,-1.8459,-1.8462,-1.8417,-1.8416,-1.8416,0,-1.8357,-1.8373,-1.8389,-1.8392,-1.8397,-1.8405,-1.8407,-1.8411,-1.8416,-1.8423,-1.8426,-1.8435,-1.8439,-1.8445,-1.8442,-1.8433,-1.8459,-1.8447,-1.8458,-1.8458,-1.8464,-1.8463,-1.85,-1.8468,-1.8468,-1.8468,-1.8468,0,-1.8388,-1.8403,-1.84,-1.841,-1.8425,-1.8422,-1.8437,-1.8438,-1.8442,-1.8451,-1.8444,-1.8453,-1.8449,-1.8457,-1.8455,-1.8469,-1.8471,-1.847,-1.847,-1.8471,-1.8471,-1.8473,-1.8471,-1.8469,-1.8468,-1.8468,-1.8468,0,-1.8419,-1.8418,-1.8434,-1.8437,-1.8438,-1.8449,-1.8452,-1.846,-1.846,-1.8471,-1.8474,-1.8473,-1.8482,-1.848,-1.849,-1.8489,-1.8506,-1.8503,-1.8504,-1.8503,-1.8515,-1.8513,-1.8554,-1.8559,-1.8524,-1.8524,-1.8524,0,-1.8439,-1.845,-1.8453,-1.8459,-1.8462,-1.8471,-1.8476,-1.8473,-1.8478,-1.8484,-1.8492,-1.85,-1.8507,-1.8522,-1.8522,-1.8529,-1.8526,-1.854,-1.8527,-1.8528,-1.8525,-1.8524,-1.8525,-1.8542,-1.8543,-1.8543,-1.8543,0,-1.8474,-1.8472,-1.848,-1.8488,-1.8494,-1.85,-1.8505,-1.851,-1.8506,-1.8513,-1.8522,-1.8527,-1.8537,-1.8545,-1.8552,-1.8553,-1.8548,-1.8547,-1.855,-1.8551,-1.8551,-1.855,-1.851,-1.8546,-1.8546,-1.8546,-1.8546,-1.8545,-1.8499,-1.8508,-1.8511,-1.852,-1.8523,-1.8528,-1.8536,-1.8536,-1.8543,-1.8551,-1.8548,-1.8559,-1.8562,-1.857,-1.8573,-1.858,-1.8575,-1.8579,-1.858,-1.8581,-1.8582,-1.855,-1.8581,-1.8581,-1.8581,-1.8581,-1.8581,0,-1.8533,-1.8534,-1.8542,-1.8549,-1.8556,-1.855,-1.8554,-1.856,-1.8569,-1.8573,-1.8579,-1.8589,-1.8597,-1.8597,-1.8604,-1.861,-1.8607,-1.8612,-1.8611,-1.8611,-1.8587,-1.8583,-1.8614,-1.8614,-1.8614,-1.8614,-1.8614,-1.8613,-1.8551,-1.8565,-1.8564,-1.8579,-1.858,-1.859,-1.8593,-1.8597,-1.8599,-1.8611,-1.8617,-1.8617,-1.8619,-1.8626,-1.8632,-1.8632,-1.8635,-1.864,-1.8639,-1.8616,-1.8613,-1.861,-1.8606,-1.8641,-1.8641,-1.8662,-1.8662,-1.8662]}]]